{"data":{"norad_id":67991,"intl_designator":"2026-039F","name":"STARLINK-36941","alt_names":[],"object_type":"PAYLOAD","status":"ACTIVE","operator":null,"country":"US","launch_date":"2026-02-27","launch_site_code":"AFETR","launch_vehicle":null,"mission":null,"orbit_class":"UNKNOWN","rcs_meters":null,"size_class":null,"mass_kg":null,"dimensions":null,"purposes":["comms"],"wikipedia_slug":null,"has_3d_model":false,"image_url":null,"decayed_at":null,"tle_current":{"epoch":"2026-05-24T22:37:41.839104Z","epoch_age_seconds":80287,"freshness":"FRESH","line1":"1 67991U 26039F   26144.94284536  .00014705  00000+0  54271-3 0  9998","line2":"2 67991  43.0027 338.4649 0001494 274.4559  85.6121 15.27587006 13368","mean_motion":15.27587006,"eccentricity":0.0001494,"inclination_deg":43.0027,"raan_deg":338.4649,"arg_perigee_deg":274.4559,"mean_anomaly_deg":85.6121,"bstar":0.00054271,"rev_number":1336,"period_min":94.266316376352,"perigee_km":482.00305956686,"apogee_km":484.05317570401,"semimajor_km":6861.1651176354,"source":"CELESTRAK","updated_at":"2026-05-25T13:38:21.779831Z"}}}